Voltar ao catálogo

METEOR 3-4

AtivoMeteoPO
NORAD 21232·PAYLOAD·🇷🇺 Russia

Lançado Apr 24, 1991 de Plesetsk Cosmodrome

Loading…

Próximas Passagens (próximas 24 horas)

TLE

AtualizadoSource: Space-Track

Época: Sep 14, 2026, 14:27 UTC

1 21232U 91030A   26257.60233192  .00000051  00000-0  10067-3 0  9994
2 21232  82.5411 121.0983 0012060 298.4466  89.0958 13.16703655700873

Acompanhe METEOR 3-4 em tempo real com AllMySat

Download on the App Store